Location: Newark
(51.8900°N, 2.0780°W)
Time: 15:15:32
(UTC+00:00)

Envisat - Pass Details

Date: 25 November 2019
Orbit: 764 x 766 km, 98.1° (Epoch: 15 December)

Event Time Altitude Azimuth Distance (km) Brightness Sun altitude
Rises 16:55:27 0° 135° (SE) 3,226 6.0 -7.5°
Reaches altitude 10° 16:57:55 10° 127° (SE) 2,303 5.2 -7.8°
Maximum altitude 17:02:27 34° 63° (ENE) 1,245 3.6 -8.5°
Drops below altitude 10° 17:07:01 10° 360° (N) 2,316 5.3 -9.1°
Sets 17:09:29 0° 351° (N) 3,246 6.1 -9.5°
